Year,Month,Day,Hour,Minute,Value (Times are PST for temperature in C)
2021,08,14,00,00,21.40
2021,08,14,00,01,21.30
2021,08,14,00,02,21.30
2021,08,14,00,03,21.30
2021,08,14,00,04,21.30
2021,08,14,00,05,21.30
2021,08,14,00,06,21.30
2021,08,14,00,07,21.30
2021,08,14,00,08,21.30
2021,08,14,00,09,21.30
2021,08,14,00,10,21.30
2021,08,14,00,11,21.20
2021,08,14,00,12,21.30
2021,08,14,00,13,21.30
2021,08,14,00,14,21.30
2021,08,14,00,15,21.30
2021,08,14,00,16,21.30
2021,08,14,00,17,21.20
2021,08,14,00,18,21.30
2021,08,14,00,19,21.20
2021,08,14,00,20,21.20
2021,08,14,00,21,21.20
2021,08,14,00,22,21.20
2021,08,14,00,23,21.20
2021,08,14,00,24,21.20
2021,08,14,00,25,21.10
2021,08,14,00,26,21.10
2021,08,14,00,27,21.10
2021,08,14,00,28,21.10
2021,08,14,00,29,21.10
2021,08,14,00,30,21.00
2021,08,14,00,31,21.00
2021,08,14,00,32,21.00
2021,08,14,00,33,21.00
2021,08,14,00,34,20.90
2021,08,14,00,35,20.90
2021,08,14,00,36,20.90
2021,08,14,00,37,20.90
2021,08,14,00,38,20.90
2021,08,14,00,39,20.90
2021,08,14,00,40,20.90
2021,08,14,00,41,20.80
2021,08,14,00,42,20.90
2021,08,14,00,43,20.80
2021,08,14,00,44,20.80
2021,08,14,00,45,20.80
2021,08,14,00,46,20.80
2021,08,14,00,47,20.80
2021,08,14,00,48,20.80
2021,08,14,00,49,20.80
2021,08,14,00,50,20.70
2021,08,14,00,51,20.70
2021,08,14,00,52,20.70
2021,08,14,00,53,20.70
2021,08,14,00,54,20.70
2021,08,14,00,55,20.70
2021,08,14,00,56,20.70
2021,08,14,00,57,20.70
2021,08,14,00,58,20.70
2021,08,14,00,59,20.70
2021,08,14,01,00,20.70
2021,08,14,01,01,20.70
2021,08,14,01,02,20.70
2021,08,14,01,03,20.70
2021,08,14,01,04,20.70
2021,08,14,01,05,20.60
2021,08,14,01,06,20.60
2021,08,14,01,07,20.60
2021,08,14,01,08,20.60
2021,08,14,01,09,20.60
2021,08,14,01,10,20.60
2021,08,14,01,11,20.60
2021,08,14,01,12,20.60
2021,08,14,01,13,20.60
2021,08,14,01,14,20.60
2021,08,14,01,15,20.60
2021,08,14,01,16,20.60
2021,08,14,01,17,20.50
2021,08,14,01,18,20.50
2021,08,14,01,19,20.50
2021,08,14,01,20,20.40
2021,08,14,01,21,20.40
2021,08,14,01,22,20.40
2021,08,14,01,23,20.30
2021,08,14,01,24,20.30
2021,08,14,01,25,20.30
2021,08,14,01,26,20.30
2021,08,14,01,27,20.20
2021,08,14,01,28,20.20
2021,08,14,01,29,20.20
2021,08,14,01,30,20.10
2021,08,14,01,31,20.10
2021,08,14,01,32,20.10
2021,08,14,01,33,20.10
2021,08,14,01,34,20.10
2021,08,14,01,35,20.10
2021,08,14,01,36,20.10
2021,08,14,01,37,20.10
2021,08,14,01,38,20.00
2021,08,14,01,39,20.10
2021,08,14,01,40,20.10
2021,08,14,01,41,20.10
2021,08,14,01,42,20.10
2021,08,14,01,43,20.10
2021,08,14,01,44,20.20
2021,08,14,01,45,20.20
2021,08,14,01,46,20.20
2021,08,14,01,47,20.20
2021,08,14,01,48,20.20
2021,08,14,01,49,20.20
2021,08,14,01,50,20.20
2021,08,14,01,51,20.20
2021,08,14,01,52,20.20
2021,08,14,01,53,20.20
2021,08,14,01,54,20.20
2021,08,14,01,55,20.20
2021,08,14,01,56,20.20
2021,08,14,01,57,20.20
2021,08,14,01,58,20.20
2021,08,14,01,59,20.20
2021,08,14,02,00,20.20
2021,08,14,02,01,20.20
2021,08,14,02,02,20.10
2021,08,14,02,03,20.20
2021,08,14,02,04,20.10
2021,08,14,02,05,20.10
2021,08,14,02,06,20.10
2021,08,14,02,07,20.10
2021,08,14,02,08,20.10
2021,08,14,02,09,20.10
2021,08,14,02,10,20.10
2021,08,14,02,11,20.10
2021,08,14,02,12,20.00
2021,08,14,02,13,20.00
2021,08,14,02,14,19.90
2021,08,14,02,15,19.90
2021,08,14,02,16,19.90
2021,08,14,02,17,19.90
2021,08,14,02,18,19.90
2021,08,14,02,19,19.90
2021,08,14,02,20,19.90
2021,08,14,02,21,19.90
2021,08,14,02,22,19.90
2021,08,14,02,23,19.90
2021,08,14,02,24,19.90
2021,08,14,02,25,19.90
2021,08,14,02,26,19.90
2021,08,14,02,27,19.90
2021,08,14,02,28,19.90
2021,08,14,02,29,19.90
2021,08,14,02,30,19.80
2021,08,14,02,31,19.80
2021,08,14,02,32,19.70
2021,08,14,02,33,19.70
2021,08,14,02,34,19.80
2021,08,14,02,35,19.80
2021,08,14,02,36,19.80
2021,08,14,02,37,19.90
2021,08,14,02,38,19.90
2021,08,14,02,39,19.90
2021,08,14,02,40,19.90
2021,08,14,02,41,19.90
2021,08,14,02,42,19.80
2021,08,14,02,43,19.80
2021,08,14,02,44,19.80
2021,08,14,02,45,19.80
2021,08,14,02,46,19.80
2021,08,14,02,47,19.70
2021,08,14,02,48,19.70
2021,08,14,02,49,19.60
2021,08,14,02,50,19.60
2021,08,14,02,51,19.60
2021,08,14,02,52,19.50
2021,08,14,02,53,19.50
2021,08,14,02,54,19.50
2021,08,14,02,55,19.50
2021,08,14,02,56,19.50
2021,08,14,02,57,19.50
2021,08,14,02,58,19.50
2021,08,14,02,59,19.60
2021,08,14,03,00,19.60
2021,08,14,03,01,19.60
2021,08,14,03,02,19.60
2021,08,14,03,03,19.60
2021,08,14,03,04,19.70
2021,08,14,03,05,19.70
2021,08,14,03,06,19.70
2021,08,14,03,07,19.70
2021,08,14,03,08,19.70
2021,08,14,03,09,19.70
2021,08,14,03,10,19.60
2021,08,14,03,11,19.60
2021,08,14,03,12,19.60
2021,08,14,03,13,19.70
2021,08,14,03,14,19.70
2021,08,14,03,15,19.70
2021,08,14,03,16,19.70
2021,08,14,03,17,19.70
2021,08,14,03,18,19.70
2021,08,14,03,19,19.70
2021,08,14,03,20,19.60
2021,08,14,03,21,19.60
2021,08,14,03,22,19.60
2021,08,14,03,23,19.60
2021,08,14,03,24,19.60
2021,08,14,03,25,19.50
2021,08,14,03,26,19.50
2021,08,14,03,27,19.50
2021,08,14,03,28,19.50
2021,08,14,03,29,19.50
2021,08,14,03,30,19.50
2021,08,14,03,31,19.50
2021,08,14,03,32,19.50
2021,08,14,03,33,19.50
2021,08,14,03,34,19.50
2021,08,14,03,35,19.50
2021,08,14,03,36,19.50
2021,08,14,03,37,19.50
2021,08,14,03,38,19.50
2021,08,14,03,39,19.60
2021,08,14,03,40,19.60
2021,08,14,03,41,19.70
2021,08,14,03,42,19.70
2021,08,14,03,43,19.80
2021,08,14,03,44,19.80
2021,08,14,03,45,19.90
2021,08,14,03,46,19.90
2021,08,14,03,47,20.00
2021,08,14,03,48,20.10
2021,08,14,03,49,20.10
2021,08,14,03,50,20.20
2021,08,14,03,51,20.40
2021,08,14,03,52,20.50
2021,08,14,03,53,20.60
2021,08,14,03,54,20.60
2021,08,14,03,55,20.60
2021,08,14,03,56,20.60
2021,08,14,03,57,20.60
2021,08,14,03,58,20.50
2021,08,14,03,59,20.50
2021,08,14,04,00,20.50
2021,08,14,04,01,20.50
2021,08,14,04,02,20.50
2021,08,14,04,03,20.40
2021,08,14,04,04,20.40
2021,08,14,04,05,20.40
2021,08,14,04,06,20.30
2021,08,14,04,07,20.30
2021,08,14,04,08,20.30
2021,08,14,04,09,20.20
2021,08,14,04,10,20.20
2021,08,14,04,11,20.20
2021,08,14,04,12,20.10
2021,08,14,04,13,20.10
2021,08,14,04,14,20.10
2021,08,14,04,15,20.00
2021,08,14,04,16,19.90
2021,08,14,04,17,19.90
2021,08,14,04,18,19.90
2021,08,14,04,19,19.80
2021,08,14,04,20,19.80
2021,08,14,04,21,19.80
2021,08,14,04,22,19.80
2021,08,14,04,23,19.80
2021,08,14,04,24,19.80
2021,08,14,04,25,19.80
2021,08,14,04,26,19.80
2021,08,14,04,27,19.80
2021,08,14,04,28,19.80
2021,08,14,04,29,19.70
2021,08,14,04,30,19.70
2021,08,14,04,31,19.70
2021,08,14,04,32,19.70
2021,08,14,04,33,19.70
2021,08,14,04,34,19.70
2021,08,14,04,35,19.70
2021,08,14,04,36,19.70
2021,08,14,04,37,19.70
2021,08,14,04,38,19.60
2021,08,14,04,39,19.60
2021,08,14,04,40,19.60
2021,08,14,04,41,19.60
2021,08,14,04,42,19.60
2021,08,14,04,43,19.60
2021,08,14,04,44,19.60
2021,08,14,04,45,19.60
2021,08,14,04,46,19.60
2021,08,14,04,47,19.60
2021,08,14,04,48,19.50
2021,08,14,04,49,19.50
2021,08,14,04,50,19.50
2021,08,14,04,51,19.50
2021,08,14,04,52,19.50
2021,08,14,04,53,19.50
2021,08,14,04,54,19.50
2021,08,14,04,55,19.50
2021,08,14,04,56,19.50
2021,08,14,04,57,19.50
2021,08,14,04,58,19.40
2021,08,14,04,59,19.40
2021,08,14,05,00,19.40
2021,08,14,05,01,19.40
2021,08,14,05,02,19.40
2021,08,14,05,03,19.40
2021,08,14,05,04,19.30
2021,08,14,05,05,19.30
2021,08,14,05,06,19.30
2021,08,14,05,07,19.30
2021,08,14,05,08,19.30
2021,08,14,05,09,19.20
2021,08,14,05,10,19.20
2021,08,14,05,11,19.20
2021,08,14,05,12,19.20
2021,08,14,05,13,19.20
2021,08,14,05,14,19.20
2021,08,14,05,15,19.20
2021,08,14,05,16,19.20
2021,08,14,05,17,19.10
2021,08,14,05,18,19.10
2021,08,14,05,19,19.10
2021,08,14,05,20,19.10
2021,08,14,05,21,19.10
2021,08,14,05,22,19.10
2021,08,14,05,23,19.10
2021,08,14,05,24,19.10
2021,08,14,05,25,19.10
2021,08,14,05,26,19.10
2021,08,14,05,27,19.00
2021,08,14,05,28,19.00
2021,08,14,05,29,19.00
2021,08,14,05,30,18.90
2021,08,14,05,31,18.90
2021,08,14,05,32,18.90
2021,08,14,05,33,18.90
2021,08,14,05,34,18.90
2021,08,14,05,35,18.90
2021,08,14,05,36,18.90
2021,08,14,05,37,18.80
2021,08,14,05,38,18.80
2021,08,14,05,39,18.80
2021,08,14,05,40,18.80
2021,08,14,05,41,18.70
2021,08,14,05,42,18.70
2021,08,14,05,43,18.70
2021,08,14,05,44,18.60
2021,08,14,05,45,18.60
2021,08,14,05,46,18.60
2021,08,14,05,47,18.60
2021,08,14,05,48,18.60
2021,08,14,05,49,18.60
2021,08,14,05,50,18.60
2021,08,14,05,51,18.60
2021,08,14,05,52,18.70
2021,08,14,05,53,18.70
2021,08,14,05,54,18.70
2021,08,14,05,55,18.70
2021,08,14,05,56,18.60
2021,08,14,05,57,18.60
2021,08,14,05,58,18.60
2021,08,14,05,59,18.60
2021,08,14,06,00,18.60
2021,08,14,06,01,18.60
2021,08,14,06,02,18.60
2021,08,14,06,03,18.60
2021,08,14,06,04,18.60
2021,08,14,06,05,18.60
2021,08,14,06,06,18.60
2021,08,14,06,07,18.60
2021,08,14,06,08,18.60
2021,08,14,06,09,18.50
2021,08,14,06,10,18.50
2021,08,14,06,11,18.50
2021,08,14,06,12,18.40
2021,08,14,06,13,18.40
2021,08,14,06,14,18.40
2021,08,14,06,15,18.40
2021,08,14,06,16,18.40
2021,08,14,06,17,18.30
2021,08,14,06,18,18.30
2021,08,14,06,19,18.30
2021,08,14,06,20,18.30
2021,08,14,06,21,18.30
2021,08,14,06,22,18.30
2021,08,14,06,23,18.20
2021,08,14,06,24,18.20
2021,08,14,06,25,18.20
2021,08,14,06,26,18.20
2021,08,14,06,27,18.20
2021,08,14,06,28,18.20
2021,08,14,06,29,18.20
2021,08,14,06,30,18.20
2021,08,14,06,31,18.10
2021,08,14,06,32,18.10
2021,08,14,06,33,18.10
2021,08,14,06,34,18.00
2021,08,14,06,35,18.00
2021,08,14,06,36,18.00
2021,08,14,06,37,18.00
2021,08,14,06,38,18.10
2021,08,14,06,39,18.10
2021,08,14,06,40,18.10
2021,08,14,06,41,18.10
2021,08,14,06,42,18.10
2021,08,14,06,43,18.10
2021,08,14,06,44,18.10
2021,08,14,06,45,18.10
2021,08,14,06,46,18.20
2021,08,14,06,47,18.20
2021,08,14,06,48,18.20
2021,08,14,06,49,18.20
2021,08,14,06,50,18.20
2021,08,14,06,51,18.30
2021,08,14,06,52,18.30
2021,08,14,06,53,18.30
2021,08,14,06,54,18.30
2021,08,14,06,55,18.30
2021,08,14,06,56,18.40
2021,08,14,06,57,18.40
2021,08,14,06,58,18.40
2021,08,14,06,59,18.40
2021,08,14,07,00,18.40
2021,08,14,07,01,18.40
2021,08,14,07,02,18.50
2021,08,14,07,03,18.50
2021,08,14,07,04,18.60
2021,08,14,07,05,18.60
2021,08,14,07,06,18.70
2021,08,14,07,07,18.70
2021,08,14,07,08,18.80
2021,08,14,07,09,18.80
2021,08,14,07,10,18.80
2021,08,14,07,11,18.80
2021,08,14,07,12,18.90
2021,08,14,07,13,18.90
2021,08,14,07,14,18.90
2021,08,14,07,15,18.90
2021,08,14,07,16,18.90
2021,08,14,07,17,19.00
2021,08,14,07,18,19.00
2021,08,14,07,19,19.10
2021,08,14,07,20,19.10
2021,08,14,07,21,19.10
2021,08,14,07,22,19.20
2021,08,14,07,23,19.20
2021,08,14,07,24,19.20
2021,08,14,07,25,19.20
2021,08,14,07,26,19.30
2021,08,14,07,27,19.30
2021,08,14,07,28,19.30
2021,08,14,07,29,19.40
2021,08,14,07,30,19.40
2021,08,14,07,31,19.40
2021,08,14,07,32,19.40
2021,08,14,07,33,19.50
2021,08,14,07,34,19.60
2021,08,14,07,35,19.60
2021,08,14,07,36,19.70
2021,08,14,07,37,19.70
2021,08,14,07,38,19.80
2021,08,14,07,39,19.80
2021,08,14,07,40,19.90
2021,08,14,07,41,20.00
2021,08,14,07,42,20.00
2021,08,14,07,43,20.10
2021,08,14,07,44,20.10
2021,08,14,07,45,20.20
2021,08,14,07,46,20.20
2021,08,14,07,47,20.30
2021,08,14,07,48,20.30
2021,08,14,07,49,20.40
2021,08,14,07,50,20.40
2021,08,14,07,51,20.50
2021,08,14,07,52,20.50
2021,08,14,07,53,20.60
2021,08,14,07,54,20.60
2021,08,14,07,55,20.70
2021,08,14,07,56,20.70
2021,08,14,07,57,20.80
2021,08,14,07,58,20.90
2021,08,14,07,59,20.90
2021,08,14,08,00,21.00
2021,08,14,08,01,21.10
2021,08,14,08,02,21.10
2021,08,14,08,03,21.20
2021,08,14,08,04,21.30
2021,08,14,08,05,21.30
2021,08,14,08,06,21.40
2021,08,14,08,07,21.50
2021,08,14,08,08,21.60
2021,08,14,08,09,21.70
2021,08,14,08,10,21.80
2021,08,14,08,11,21.90
2021,08,14,08,12,22.00
2021,08,14,08,13,22.10
2021,08,14,08,14,22.20
2021,08,14,08,15,22.30
2021,08,14,08,16,22.40
2021,08,14,08,17,22.50
2021,08,14,08,18,22.60
2021,08,14,08,19,22.70
2021,08,14,08,20,22.70
2021,08,14,08,21,22.80
2021,08,14,08,22,22.90
2021,08,14,08,23,23.00
2021,08,14,08,24,23.00
2021,08,14,08,25,23.10
2021,08,14,08,26,23.20
2021,08,14,08,27,23.20
2021,08,14,08,28,23.30
2021,08,14,08,29,23.40
2021,08,14,08,30,23.50
2021,08,14,08,31,23.50
2021,08,14,08,32,23.60
2021,08,14,08,33,23.70
2021,08,14,08,34,23.80
2021,08,14,08,35,23.80
2021,08,14,08,36,23.80
2021,08,14,08,37,23.80
2021,08,14,08,38,23.80
2021,08,14,08,39,23.80
2021,08,14,08,40,23.80
2021,08,14,08,41,23.80
2021,08,14,08,42,23.80
2021,08,14,08,43,23.80
2021,08,14,08,44,23.80
2021,08,14,08,45,23.80
2021,08,14,08,46,23.80
2021,08,14,08,47,23.80
2021,08,14,08,48,23.80
2021,08,14,08,49,23.80
2021,08,14,08,50,23.80
2021,08,14,08,51,23.80
2021,08,14,08,52,23.80
2021,08,14,08,53,23.80
2021,08,14,08,54,23.80
2021,08,14,08,55,23.80
2021,08,14,08,56,23.80
2021,08,14,08,57,23.80
2021,08,14,08,58,23.80
2021,08,14,08,59,23.80
2021,08,14,09,00,23.90
2021,08,14,09,01,23.90
2021,08,14,09,02,23.90
2021,08,14,09,03,23.90
2021,08,14,09,04,23.90
2021,08,14,09,05,23.90
2021,08,14,09,06,23.90
2021,08,14,09,07,23.90
2021,08,14,09,08,24.00
2021,08,14,09,09,24.00
2021,08,14,09,10,24.00
2021,08,14,09,11,24.00
2021,08,14,09,12,24.10
2021,08,14,09,13,24.10
2021,08,14,09,14,24.10
2021,08,14,09,15,24.10
2021,08,14,09,16,24.10
2021,08,14,09,17,24.20
2021,08,14,09,18,24.20
2021,08,14,09,19,24.20
2021,08,14,09,20,24.30
2021,08,14,09,21,24.40
2021,08,14,09,22,24.40
2021,08,14,09,23,24.50
2021,08,14,09,24,24.50
2021,08,14,09,25,24.60
2021,08,14,09,26,24.60
2021,08,14,09,27,24.60
2021,08,14,09,28,24.60
2021,08,14,09,29,24.60
2021,08,14,09,30,24.70
2021,08,14,09,31,24.70
2021,08,14,09,32,24.80
2021,08,14,09,33,24.90
2021,08,14,09,34,24.90
2021,08,14,09,35,25.00
2021,08,14,09,36,25.00
2021,08,14,09,37,24.90
2021,08,14,09,38,24.80
2021,08,14,09,39,24.70
2021,08,14,09,40,24.70
2021,08,14,09,41,24.60
2021,08,14,09,42,24.60
2021,08,14,09,43,24.60
2021,08,14,09,44,24.70
2021,08,14,09,45,24.70
2021,08,14,09,46,24.80
2021,08,14,09,47,24.80
2021,08,14,09,48,24.80
2021,08,14,09,49,24.80
2021,08,14,09,50,24.80
2021,08,14,09,51,24.80
2021,08,14,09,52,24.70
2021,08,14,09,53,24.80
2021,08,14,09,54,24.70
2021,08,14,09,55,24.70
2021,08,14,09,56,24.70
2021,08,14,09,57,24.70
2021,08,14,09,58,24.60
2021,08,14,09,59,24.60
2021,08,14,10,00,24.60
2021,08,14,10,01,24.60
2021,08,14,10,02,24.60
2021,08,14,10,03,24.60
2021,08,14,10,04,24.60
2021,08,14,10,05,24.70
2021,08,14,10,06,24.80
2021,08,14,10,07,24.80
2021,08,14,10,08,24.80
2021,08,14,10,09,24.80
2021,08,14,10,10,24.70
2021,08,14,10,11,24.60
2021,08,14,10,12,24.50
2021,08,14,10,13,24.50
2021,08,14,10,14,24.40
2021,08,14,10,15,24.30
2021,08,14,10,16,24.30
2021,08,14,10,17,24.30
2021,08,14,10,18,24.20
2021,08,14,10,19,24.20
2021,08,14,10,20,24.20
2021,08,14,10,21,24.30
2021,08,14,10,22,24.30
2021,08,14,10,23,24.30
2021,08,14,10,24,24.30
2021,08,14,10,25,24.30
2021,08,14,10,26,24.30
2021,08,14,10,27,24.30
2021,08,14,10,28,24.40
2021,08,14,10,29,24.40
2021,08,14,10,30,24.40
2021,08,14,10,31,24.40
2021,08,14,10,32,24.40
2021,08,14,10,33,24.50
2021,08,14,10,34,24.50
2021,08,14,10,35,24.60
2021,08,14,10,36,24.60
2021,08,14,10,37,24.60
2021,08,14,10,38,24.60
2021,08,14,10,39,24.50
2021,08,14,10,40,24.50
2021,08,14,10,41,24.40
2021,08,14,10,42,24.30
2021,08,14,10,43,24.20
2021,08,14,10,44,24.20
2021,08,14,10,45,24.20
2021,08,14,10,46,24.10
2021,08,14,10,47,24.10
2021,08,14,10,48,24.10
2021,08,14,10,49,24.10
2021,08,14,10,50,24.10
2021,08,14,10,51,24.20
2021,08,14,10,52,24.30
2021,08,14,10,53,24.30
2021,08,14,10,54,24.30
2021,08,14,10,55,24.30
2021,08,14,10,56,24.30
2021,08,14,10,57,24.40
2021,08,14,10,58,24.40
2021,08,14,10,59,24.40
2021,08,14,11,00,24.50
2021,08,14,11,01,24.50
2021,08,14,11,02,24.60
2021,08,14,11,03,24.60
2021,08,14,11,04,24.60
2021,08,14,11,05,24.60
2021,08,14,11,06,24.60
2021,08,14,11,07,24.60
2021,08,14,11,08,24.70
2021,08,14,11,09,24.70
2021,08,14,11,10,24.80
2021,08,14,11,11,24.80
2021,08,14,11,12,25.00
2021,08,14,11,13,25.00
2021,08,14,11,14,25.00
2021,08,14,11,15,25.10
2021,08,14,11,16,25.20
2021,08,14,11,17,25.20
2021,08,14,11,18,25.30
2021,08,14,11,19,25.30
2021,08,14,11,20,25.30
2021,08,14,11,21,25.30
2021,08,14,11,22,25.40
2021,08,14,11,23,25.40
2021,08,14,11,24,25.40
2021,08,14,11,25,25.40
2021,08,14,11,26,25.30
2021,08,14,11,27,25.30
2021,08,14,11,28,25.30
2021,08,14,11,29,25.30
2021,08,14,11,30,25.30
2021,08,14,11,31,25.20
2021,08,14,11,32,25.20
2021,08,14,11,33,25.20
2021,08,14,11,34,25.20
2021,08,14,11,35,25.20
2021,08,14,11,36,25.20
2021,08,14,11,37,25.20
2021,08,14,11,38,25.20
2021,08,14,11,39,25.30
2021,08,14,11,40,25.40
2021,08,14,11,41,25.50
2021,08,14,11,42,25.60
2021,08,14,11,43,25.70
2021,08,14,11,44,25.80
2021,08,14,11,45,25.80
2021,08,14,11,46,25.80
2021,08,14,11,47,25.70
2021,08,14,11,48,25.70
2021,08,14,11,49,25.70
2021,08,14,11,50,25.60
2021,08,14,11,51,25.60
2021,08,14,11,52,25.60
2021,08,14,11,53,25.60
2021,08,14,11,54,25.50
2021,08,14,11,55,25.40
2021,08,14,11,56,25.40
2021,08,14,11,57,25.40
2021,08,14,11,58,25.30
2021,08,14,11,59,25.20
2021,08,14,12,00,25.00
2021,08,14,12,01,24.90
2021,08,14,12,02,24.90
2021,08,14,12,03,24.90
2021,08,14,12,04,24.90
2021,08,14,12,05,25.00
2021,08,14,12,06,25.00
2021,08,14,12,07,25.00
2021,08,14,12,08,24.90
2021,08,14,12,09,24.90
2021,08,14,12,10,25.00
2021,08,14,12,11,25.00
2021,08,14,12,12,25.10
2021,08,14,12,13,25.20
2021,08,14,12,14,25.20
2021,08,14,12,15,25.10
2021,08,14,12,16,25.10
2021,08,14,12,17,25.10
2021,08,14,12,18,25.10
2021,08,14,12,19,25.10
2021,08,14,12,20,25.10
2021,08,14,12,21,25.00
2021,08,14,12,22,24.90
2021,08,14,12,23,24.90
2021,08,14,12,24,24.90
2021,08,14,12,25,24.90
2021,08,14,12,26,24.90
2021,08,14,12,27,24.90
2021,08,14,12,28,24.90
2021,08,14,12,29,24.80
2021,08,14,12,30,24.80
2021,08,14,12,31,24.80
2021,08,14,12,32,24.80
2021,08,14,12,33,24.80
2021,08,14,12,34,24.80
2021,08,14,12,35,24.70
2021,08,14,12,36,24.80
2021,08,14,12,37,24.80
2021,08,14,12,38,24.80
2021,08,14,12,39,24.90
2021,08,14,12,40,25.00
2021,08,14,12,41,25.10
2021,08,14,12,42,25.20
2021,08,14,12,43,25.30
2021,08,14,12,44,25.30
2021,08,14,12,45,25.30
2021,08,14,12,46,25.20
2021,08,14,12,47,25.20
2021,08,14,12,48,25.10
2021,08,14,12,49,25.10
2021,08,14,12,50,25.00
2021,08,14,12,51,24.90
2021,08,14,12,52,24.90
2021,08,14,12,53,24.80
2021,08,14,12,54,24.70
2021,08,14,12,55,24.70
2021,08,14,12,56,24.70
2021,08,14,12,57,24.70
2021,08,14,12,58,24.70
2021,08,14,12,59,24.60
2021,08,14,13,00,24.60
2021,08,14,13,01,24.60
2021,08,14,13,02,24.60
2021,08,14,13,03,24.60
2021,08,14,13,04,24.60
2021,08,14,13,05,24.60
2021,08,14,13,06,24.60
2021,08,14,13,07,24.60
2021,08,14,13,08,24.60
2021,08,14,13,09,24.60
2021,08,14,13,10,24.60
2021,08,14,13,11,24.60
2021,08,14,13,12,24.40
2021,08,14,13,13,24.40
2021,08,14,13,14,24.40
2021,08,14,13,15,24.40
2021,08,14,13,16,24.40
2021,08,14,13,17,24.40
2021,08,14,13,18,24.40
2021,08,14,13,19,24.40
2021,08,14,13,20,24.50
2021,08,14,13,21,24.50
2021,08,14,13,22,24.60
2021,08,14,13,23,24.60
2021,08,14,13,24,24.70
2021,08,14,13,25,24.80
2021,08,14,13,26,24.90
2021,08,14,13,27,24.90
2021,08,14,13,28,24.90
2021,08,14,13,29,25.00
2021,08,14,13,30,25.10
2021,08,14,13,31,25.10
2021,08,14,13,32,25.20
2021,08,14,13,33,25.20
2021,08,14,13,34,25.20
2021,08,14,13,35,25.20
2021,08,14,13,36,25.10
2021,08,14,13,37,25.10
2021,08,14,13,38,25.10
2021,08,14,13,39,25.10
2021,08,14,13,40,25.00
2021,08,14,13,41,25.00
2021,08,14,13,42,24.90
2021,08,14,13,43,24.90
2021,08,14,13,44,24.90
2021,08,14,13,45,24.90
2021,08,14,13,46,24.90
2021,08,14,13,47,24.90
2021,08,14,13,48,24.90
2021,08,14,13,49,24.90
2021,08,14,13,50,24.80
2021,08,14,13,51,24.80
2021,08,14,13,52,24.80
2021,08,14,13,53,24.70
2021,08,14,13,54,24.60
2021,08,14,13,55,24.50
2021,08,14,13,56,24.50
2021,08,14,13,57,24.40
2021,08,14,13,58,24.40
2021,08,14,13,59,24.40
2021,08,14,14,00,24.40
2021,08,14,14,01,24.40
2021,08,14,14,02,24.40
2021,08,14,14,03,24.40
2021,08,14,14,04,24.40
2021,08,14,14,05,24.40
2021,08,14,14,06,24.40
2021,08,14,14,07,24.40
2021,08,14,14,08,24.50
2021,08,14,14,09,24.60
2021,08,14,14,10,24.70
2021,08,14,14,11,24.80
2021,08,14,14,12,24.80
2021,08,14,14,13,24.80
2021,08,14,14,14,24.80
2021,08,14,14,15,24.70
2021,08,14,14,16,24.70
2021,08,14,14,17,24.60
2021,08,14,14,18,24.60
2021,08,14,14,19,24.60
2021,08,14,14,20,24.70
2021,08,14,14,21,24.80
2021,08,14,14,22,24.80
2021,08,14,14,23,24.80
2021,08,14,14,24,24.80
2021,08,14,14,25,24.80
2021,08,14,14,26,24.80
2021,08,14,14,27,24.80
2021,08,14,14,28,24.80
2021,08,14,14,29,24.80
2021,08,14,14,30,24.70
2021,08,14,14,31,24.70
2021,08,14,14,32,24.80
2021,08,14,14,33,24.90
2021,08,14,14,34,25.00
2021,08,14,14,35,25.00
2021,08,14,14,36,25.10
2021,08,14,14,37,25.10
2021,08,14,14,38,25.10
2021,08,14,14,39,25.20
2021,08,14,14,40,25.30
2021,08,14,14,41,25.40
2021,08,14,14,42,25.50
2021,08,14,14,43,25.50
2021,08,14,14,44,25.40
2021,08,14,14,45,25.40
2021,08,14,14,46,25.20
2021,08,14,14,47,25.20
2021,08,14,14,48,25.10
2021,08,14,14,49,25.10
2021,08,14,14,50,25.10
2021,08,14,14,51,25.10
2021,08,14,14,52,25.10
2021,08,14,14,53,25.10
2021,08,14,14,54,25.20
2021,08,14,14,55,25.30
2021,08,14,14,56,25.40
2021,08,14,14,57,25.40
2021,08,14,14,58,25.40
2021,08,14,14,59,25.40
2021,08,14,15,00,25.40
2021,08,14,15,01,25.50
2021,08,14,15,02,25.50
2021,08,14,15,03,25.60
2021,08,14,15,04,25.70
2021,08,14,15,05,25.80
2021,08,14,15,06,25.80
2021,08,14,15,07,25.90
2021,08,14,15,08,25.90
2021,08,14,15,09,26.00
2021,08,14,15,10,25.90
2021,08,14,15,11,25.90
2021,08,14,15,12,25.80
2021,08,14,15,13,25.80
2021,08,14,15,14,25.80
2021,08,14,15,15,25.80
2021,08,14,15,16,25.70
2021,08,14,15,17,25.60
2021,08,14,15,18,25.60
2021,08,14,15,19,25.60
2021,08,14,15,20,25.50
2021,08,14,15,21,25.40
2021,08,14,15,22,25.40
2021,08,14,15,23,25.40
2021,08,14,15,24,25.40
2021,08,14,15,25,25.40
2021,08,14,15,26,25.40
2021,08,14,15,27,25.40
2021,08,14,15,28,25.40
2021,08,14,15,29,25.40
2021,08,14,15,30,25.40
2021,08,14,15,31,25.40
2021,08,14,15,32,25.40
2021,08,14,15,33,25.30
2021,08,14,15,34,25.30
2021,08,14,15,35,25.30
2021,08,14,15,36,25.30
2021,08,14,15,37,25.30
2021,08,14,15,38,25.30
2021,08,14,15,39,25.30
2021,08,14,15,40,25.30
2021,08,14,15,41,25.30
2021,08,14,15,42,25.20
2021,08,14,15,43,25.20
2021,08,14,15,44,25.20
2021,08,14,15,45,25.30
2021,08,14,15,46,25.30
2021,08,14,15,47,25.30
2021,08,14,15,48,25.30
2021,08,14,15,49,25.30
2021,08,14,15,50,25.30
2021,08,14,15,51,25.20
2021,08,14,15,52,25.30
2021,08,14,15,53,25.20
2021,08,14,15,54,25.20
2021,08,14,15,55,25.10
2021,08,14,15,56,25.10
2021,08,14,15,57,24.90
2021,08,14,15,58,24.70
2021,08,14,15,59,24.60
2021,08,14,16,00,24.60
2021,08,14,16,01,24.60
2021,08,14,16,02,24.60
2021,08,14,16,03,24.60
2021,08,14,16,04,24.60
2021,08,14,16,05,24.70
2021,08,14,16,06,24.70
2021,08,14,16,07,24.70
2021,08,14,16,08,24.70
2021,08,14,16,09,24.80
2021,08,14,16,10,24.80
2021,08,14,16,11,24.70
2021,08,14,16,12,24.70
2021,08,14,16,13,24.60
2021,08,14,16,14,24.60
2021,08,14,16,15,24.70
2021,08,14,16,16,24.70
2021,08,14,16,17,24.70
2021,08,14,16,18,24.70
2021,08,14,16,19,24.70
2021,08,14,16,20,24.70
2021,08,14,16,21,24.70
2021,08,14,16,22,24.70
2021,08,14,16,23,24.70
2021,08,14,16,24,24.80
2021,08,14,16,25,24.80
2021,08,14,16,26,24.80
2021,08,14,16,27,24.90
2021,08,14,16,28,24.90
2021,08,14,16,29,24.90
2021,08,14,16,30,24.80
2021,08,14,16,31,24.80
2021,08,14,16,32,24.80
2021,08,14,16,33,24.80
2021,08,14,16,34,24.80
2021,08,14,16,35,24.80
2021,08,14,16,36,24.80
2021,08,14,16,37,24.90
2021,08,14,16,38,24.90
2021,08,14,16,39,24.90
2021,08,14,16,40,24.90
2021,08,14,16,41,24.90
2021,08,14,16,42,25.00
2021,08,14,16,43,25.00
2021,08,14,16,44,25.10
2021,08,14,16,45,25.10
2021,08,14,16,46,25.10
2021,08,14,16,47,25.10
2021,08,14,16,48,25.00
2021,08,14,16,49,24.90
2021,08,14,16,50,25.00
2021,08,14,16,51,25.00
2021,08,14,16,52,25.10
2021,08,14,16,53,25.20
2021,08,14,16,54,25.20
2021,08,14,16,55,25.20
2021,08,14,16,56,25.20
2021,08,14,16,57,25.20
2021,08,14,16,58,25.20
2021,08,14,16,59,25.10
2021,08,14,17,00,25.20
2021,08,14,17,01,25.20
2021,08,14,17,02,25.20
2021,08,14,17,03,25.30
2021,08,14,17,04,25.40
2021,08,14,17,05,25.40
2021,08,14,17,06,25.40
2021,08,14,17,07,25.40
2021,08,14,17,08,25.40
2021,08,14,17,09,25.30
2021,08,14,17,10,25.20
2021,08,14,17,11,25.10
2021,08,14,17,12,25.00
2021,08,14,17,13,25.00
2021,08,14,17,14,24.90
2021,08,14,17,15,24.90
2021,08,14,17,16,24.90
2021,08,14,17,17,24.90
2021,08,14,17,18,24.80
2021,08,14,17,19,24.70